This demonstration page uses our WeatherBlox Daily Observations layout. Learn more.

Left ArrowRight Arrow

Hourly Observations for July 12, 2018

Temp ( °F °C ) Dew Point ( °F °C ) Humidity (%) Winds ( mph kmh ) Pressure ( in mb ) Visibility ( mi km ) Precip ( " mm )
12:21 am 00:21 Cloudy with Light Rain 74 23.3 71 21.7 91 91 SSE 8 13 30.03 1017 4 6 0.05 1.27
12:59 am 00:59 Cloudy with Light Rain 74 23.3 71 21.7 91 91 ESE 9 15 30.03 1017 6 10 0.09 2.29
1:59 am 01:59 Cloudy with Mist and Fog 74 23.3 71 21.7 91 91 Calm 30.03 1017 6 10 0.00 0.03
2:26 am 02:26 Cloudy 73 22.8 71 21.7 94 94 E 6 9 30.03 1017 7 11 0.00 0.00
2:59 am 02:59 Cloudy 73 22.8 71 21.7 94 94 ESE 3 6 30.04 1017 8 13 0.00 0.00
3:59 am 03:59 Cloudy 73 22.8 71 21.7 94 94 Calm 30.04 1017 8 13 0.00 0.00
4:59 am 04:59 Mostly Cloudy 73 22.8 70 21.1 90 90 ENE 5 7 30.05 1018 9 14 0.00 0.00
5:59 am 05:59 Mostly Cloudy 73 22.8 70 21.1 90 90 Calm 30.06 1018 8 13 0.00 0.00
6:59 am 06:59 Partly Cloudy 74 23.3 71 21.7 91 91 Calm 30.06 1018 7 11 0.00 0.00
7:59 am 07:59 Partly Cloudy 76 24.4 71 21.7 85 85 NE 8 13 30.07 1018 7 11 0.00 0.00
8:08 am 08:08 Mostly Cloudy 76 24.4 71 21.7 85 85 ENE 6 9 30.09 1019 7 11 0.00 0.00
8:59 am 08:59 Mostly Cloudy 77 25 71 21.7 82 82 ENE 7 11 30.09 1019 8 13 0.00 0.00
9:59 am 09:59 Mostly Cloudy 79 26.1 70 21.1 74 74 E 13 20 30.10 1019 9 14 0.00 0.00
10:59 am 10:59 Mostly Cloudy 78 25.6 70 21.1 76 76 ENE 13 20 30.12 1020 9 14 0.00 0.00
11:59 am 11:59 Partly Cloudy 80 26.7 70 21.1 71 71 ENE 13 20 30.14 1021 10 16 0.00 0.00
12:59 pm 12:59 Partly Cloudy 80 26.7 70 21.1 71 71 ENE 12 19 30.14 1021 10 16 0.00 0.00
1:59 pm 13:59 Partly Cloudy 81 27.2 70 21.1 69 69 ENE 13 20 30.14 1021 10 16 0.00 0.00
2:59 pm 14:59 Partly Cloudy 81 27.2 71 21.7 72 72 E 12 19 30.14 1021 10 16 0.00 0.00
3:59 pm 15:59 Partly Cloudy 81 27.2 71 21.7 72 72 E 13 20 30.13 1020 9 14 0.00 0.00
4:59 pm 16:59 Partly Cloudy 80 26.7 69 20.6 69 69 ENE 16 26 30.13 1020 10 16 0.00 0.00
5:59 pm 17:59 Partly Cloudy 79 26.1 70 21.1 74 74 ENE 15 24 30.13 1020 9 14 0.00 0.00
6:59 pm 18:59 Mostly Cloudy 77 25 70 21.1 79 79 ENE 13 20 30.16 1021 9 14 0.00 0.00
7:18 pm 19:18 Partly Cloudy 77 25 69 20.6 77 77 ENE 10 17 30.15 1021 9 14 0.00 0.00
7:42 pm 19:42 Mostly Cloudy 77 25 69 20.6 77 77 E 10 17 30.18 1022 9 14 0.00 0.00
7:59 pm 19:59 Mostly Cloudy 76 24.4 69 20.6 79 79 E 8 13 30.17 1022 9 14 0.00 0.00
8:13 pm 20:13 Mostly Cloudy 76 24.4 69 20.6 79 79 ENE 10 17 30.18 1022 9 14 0.00 0.00
8:34 pm 20:34 Mostly Cloudy 76 24.4 70 21.1 82 82 ENE 10 17 30.18 1022 9 14 0.00 0.00
8:59 pm 20:59 Mostly Cloudy 75 23.9 70 21.1 84 84 E 10 17 30.17 1022 10 16 0.00 0.00
9:59 pm 21:59 Mostly Cloudy 75 23.9 70 21.1 84 84 ENE 7 11 30.17 1022 10 16 0.00 0.00
10:27 pm 22:27 Partly Cloudy 75 23.9 70 21.1 84 84 ENE 6 9 30.18 1022 9 14 0.00 0.00
10:59 pm 22:59 Mostly Cloudy 75 23.9 70 21.1 84 84 ENE 6 9 30.16 1022 9 14 0.00 0.00
11:14 pm 23:14 Partly Cloudy 75 23.9 70 21.1 84 84 ENE 7 11 30.18 1022 9 14 0.00 0.00
11:23 pm 23:23 Mostly Cloudy 75 23.9 70 21.1 84 84 ENE 9 15 30.18 1022 9 14 0.00 0.00
11:59 pm 23:59 Cloudy 75 23.9 71 21.7 88 88 NE 8 13 30.17 1022 9 14 0.00 0.00

Powered by AerisWeather